Find Starlink 11431

NORAD ID: 62890 Int'l Des: 2025-024 Owner: SPXS Country: US Constellation: starlink operational
LEOCIRCULAR

Live Position

Loading 3D Globe...

About Starlink 11431

Description loading...

Upcoming Passes

Passes for default location (London). Set your location on the main map for personalized predictions.

Altitude History

Loading altitude history...

Two-Line Element Set

1 62890U 25024M 26103.92750048 .00123649 00000-0 95261-3 0 9996
2 62890 42.9974 329.4930 0004425 282.7148 77.3225 15.70836920 69001
Epoch: Apr 13, 2026 • Age: 11 hours

Current Status

Altitude 361.5 km
Velocity 7.70 km/s
Sub-Earth Point 41.35°N, 55.11°E
Launch Date Feb 4, 2025
Age 1.1 years
Type internet

Technical Details

Classification Payload
Mass 960.00 kg
Dry Mass 910.00 kg
Total Mass 960.00 kg
Length 0.30 m
Diameter 4.10 m
Span 29.00 m
Shape Box + pan
Manufacturer SPXS
Bus Type Starlink V2MD
Phase Status In Orbit
Owner/State SPXS/US

Most Searched